Location: Freemans Gardens
(41.6414°N, 83.6077°W)
Time: 21:56:59
(UTC+00:00)

IRS-1C Rocket - Pass Details

Date: 29 October 2020
Orbit: 801 x 805 km, 99.0° (Epoch: 25 November)

Event Time Altitude Azimuth Distance (km) Brightness Sun altitude
Rises 23:30:50 0° 157° (SSE) 3,300 7.1 -11.5°
Reaches altitude 10° 23:33:09 10° 154° (SSE) 2,375 6.4 -11.9°
Maximum altitude 23:38:21 68° 73° (ENE) 867 4.0 -12.9°
Drops below altitude 10° 23:43:36 10° 351° (N) 2,393 6.6 -13.9°
Sets 23:45:58 0° 349° (N) 3,329 7.4 -14.3°
